Powrót do katalogu

ATLAS CENTAUR R/B

AktywnyHEO
NORAD 12497·ROCKET BODY·🇺🇸 United States

Wystrzelony May 23, 1981 z Cape Canaveral Space Force Station

Loading…

Następne Przeloty (najbliższe 24 godziny)

TLE

ŚwieżeSource: Space-Track

Epoka: Sep 14, 2026, 11:01 UTC

1 12497U 81050B   26257.45928646  .00009155  00000-0  73169-3 0  9992
2 12497  23.9408 270.7218 3240945 204.5942 135.7617  8.82306983184865

Śledź ATLAS CENTAUR R/B w czasie rzeczywistym z AllMySat

Download on the App Store